Regional Weather Roundup
Issued by NWS State College, PA

Home | Current Version | Previous Version | Graphics & Text | Print | Product List | Glossary On
Versions: 1 2 3 4 5 6 7 8 9 10 11 12 13 14 15 16 17 18 19 20 21 22 23 24 25 26 27 28 29 30 31 32 33 34 35 36 37 38 39 40 41 42 43 44 45 46 47 48 49 50
000
ASUS41 KCTP 280603
RWRCTP

REGIONAL WEATHER ROUNDUP
NATIONAL WEATHER SERVICE STATE COLLEGE PA
100 AM EST FRI NOV 28 2014

Note: "fair" indicates few or no clouds below 12,000 feet with no
significant weather and/or obstructions to visibility.

* = STATION THAT DOES NOT REPORT PRECIPITATION /E.G. RAIN...SNOW...ETC/
    THUNDER OR FOG.

PAZ002>004-007>009-013>016-020>023-029>032-280700-
WESTERN PENNSYLVANIA

CITY           SKY/WX    TMP DP  RH WIND       PRES   REMARKS
ERIE           FLURRIES  29  20  69 NW14G24   30.21S
MEADVILLE      LGT SNOW  25  21  85 NW10G18   30.17R FOG     WCI  15
FRANKLIN*      CLOUDY    25  21  86 NW7       30.17R
NEW CASTLE     FLURRIES  27  24  88 NW12      30.21S
BEAVER COUNTY  NOT AVBL
BUTLER*        CLOUDY    28  25  86 W6        30.19S
PITTSBURGH INT PTCLDY    28  24  85 W9        30.19F
PITTSBURGH     CLOUDY    28  22  78 W9G18     30.18F HAZE
INDIANA*       CLOUDY    28  27  93 NW10      30.18F FOG
LATROBE        LGT RAIN  28  25  86 W7        30.21S
WASHINGTON CO* CLOUDY    28  21  74 W7        30.23S
$$

PAZ004>006-010>012-017>019-024>028-033>037-041-042-045-046-049>053-280700-
CENTRAL PENNSYLVANIA

CITY           SKY/WX    TMP DP  RH WIND       PRES   REMARKS
BRADFORD       LGT SNOW  25  19  78 NW15      30.05R WCI  13
DUBOIS         MOCLDY    25  20  81 W13       30.09S WCI  14
CLEARFIELD     MOCLDY    28  21  75 W12       30.10F
JOHNSTOWN      LGT SNOW  24  21  88 W15       30.08F FOG     WCI  11
ALTOONA        LGT SNOW  29  23  78 W12       30.13S
STATE COLLEGE  CLOUDY    29  24  79 W9        30.11S
WILLIAMSPORT   CLOUDY    32  25  75 W10       30.09S
SELINSGROVE    CLOUDY    33  23  66 VRB5      30.12S
FT INDIANTOWN  PTCLDY    33  24  71 W14G22    30.11S
CAPITAL CITY   PTCLDY    33  23  66 W9        30.14S
HARRISBURG     PTCLDY    33  23  66 NW12      30.13S
YORK           PTCLDY    32  23  69 W7        30.14R
$$

PAZ038>040-043-044-047-048-054-055-060>062-067>071-280700-
EASTERN PENNSYLVANIA

CITY           SKY/WX    TMP DP  RH WIND       PRES   REMARKS
SCRANTON       FLURRIES  27  21  78 SW6       30.05S
MOUNT POCONO   CLOUDY    24  18  77 W10       29.97F WCI  14
ALLENTOWN      CLOUDY    25  22  88 CALM      30.09S
QUAKERTOWN*    CLOUDY    25  23  93 CALM      30.09S
READING        CLOUDY    31  28  89 W6        30.10S
LANCASTER      CLOUDY    32  27  81 W10       30.11S
COATESVILLE    MIX PCPN  32  30  93 NW9       30.10S
POTTSTOWN      CLOUDY    25  23  92 CALM      30.11S
BLUE BELL      CLEAR     28  28 100 CALM      30.09F
DOYLESTOWN     MOCLDY    26  24  92 CALM      30.08F
WILLOW GROVE   NOT AVBL
NORTH PHILA    CLEAR     31  24  75 W3        30.12S
PHILADELPHIA   PTCLDY    33  26  75 NW5       30.12F
$$


USA.gov is the U.S. government's official web portal to all federal, state and local government web resources and services.